GFSMW_sfc_thetae_276.txt.gz
Theta_e
281 282 283 285 285 285 287 290 291 294 296 297 301 305 304 307 307 309 311 312 313 315 318 316 324 330 326 326 327 326 325 323 324 310 304 301 299 297 300 299 299 298 297
279 280 281 283 283 284 285 287 289 292 294 295 296 299 303 308 310 310 310 314 317 319 321 316 320 327 327 326 326 325 322 322 322 316 309 301 300 295 293 295 293 290 292
277 278 280 280 282 283 283 285 288 290 292 293 295 298 304 307 308 310 312 313 311 312 315 317 321 324 325 324 325 325 323 318 320 320 315 305 304 293 292 289 289 288 288
277 278 278 279 280 282 284 285 287 289 290 291 293 294 296 299 306 307 310 310 306 303 305 308 317 326 326 324 325 325 324 323 317 319 315 311 302 296 288 287 286 286 286
276 277 277 279 281 282 284 284 285 287 288 289 290 292 294 298 303 303 304 303 299 297 296 299 304 323 321 320 323 322 322 321 320 317 308 307 304 300 294 286 283 283 283
276 277 278 280 280 282 282 283 283 284 286 287 287 289 291 292 295 295 298 297 293 292 291 293 295 297 299 299 296 296 295 295 295 294 296 303 303 299 294 289 286 281 279
275 276 276 277 278 279 280 281 282 282 283 284 285 286 288 289 289 290 291 290 288 287 287 288 289 290 292 294 291 289 288 288 286 286 285 287 288 294 297 292 286 283 279
275 275 276 277 278 279 280 280 280 280 281 282 283 284 285 286 286 287 287 287 285 285 285 284 285 285 287 287 286 285 284 283 282 281 281 280 280 284 287 294 288 283 283
274 274 276 277 277 278 279 279 279 279 280 280 281 281 282 282 283 283 283 283 284 283 282 282 281 282 282 283 284 282 280 280 280 279 278 278 278 279 281 283 286 288 283
273 274 275 276 277 278 279 279 279 279 279 279 280 279 279 280 280 280 280 280 281 281 281 280 280 280 280 279 280 280 278 277 277 277 277 276 277 277 277 278 279 282 285
272 273 274 275 275 277 277 278 278 278 278 278 278 278 278 278 278 278 278 278 279 280 279 279 279 278 278 278 278 277 277 276 276 276 275 275 276 275 276 276 277 277 281
272 273 273 273 274 275 276 277 277 277 278 278 278 277 277 277 276 276 277 277 277 278 278 278 277 277 277 277 276 275 275 275 274 274 274 274 276 275 276 276 275 275 277
271 271 271 271 273 274 275 276 276 277 277 278 277 277 277 276 276 276 276 276 276 276 276 277 276 276 275 276 276 275 275 274 274 274 274 274 274 273 275 275 274 274 274
268 270 270 271 273 274 275 275 275 276 277 277 276 276 276 277 277 277 276 276 276 275 275 275 275 275 275 275 275 276 275 275 276 276 276 275 274 273 274 274 274 274 273
268 269 270 271 273 274 274 275 275 276 277 276 276 275 276 277 277 277 277 277 277 277 277 276 275 275 275 275 274 275 274 274 274 275 276 277 277 277 275 274 273 273 272
268 269 270 271 272 274 274 275 275 276 277 276 276 277 276 277 277 277 276 276 276 276 277 276 276 276 277 278 277 276 275 275 274 273 274 274 274 275 275 275 275 274 272
268 269 270 271 273 273 275 274 275 276 276 275 275 276 276 276 276 276 276 276 276 276 276 276 276 276 277 277 276 275 274 273 273 273 274 273 274 274 272 273 272 272 273
268 269 270 272 274 275 275 276 276 276 276 275 275 275 275 274 275 275 275 276 276 276 276 276 276 276 276 276 275 273 272 271 272 272 273 273 274 275 273 272 271 271 270
268 268 268 269 273 273 274 275 274 275 274 274 274 274 275 274 274 274 274 275 275 275 275 276 276 275 275 276 275 273 272 271 270 271 272 273 274 275 276 273 271 270 270
266 268 269 271 272 273 275 274 273 273 273 273 273 274 274 274 273 274 274 275 275 275 275 275 275 277 276 277 275 274 273 271 271 271 271 271 273 275 275 273 270 268 270
268 269 269 270 271 271 273 272 272 272 273 273 273 273 273 273 273 273 274 274 273 273 273 273 274 274 275 277 277 276 273 272 272 271 270 271 272 274 274 274 271 269 273
268 271 270 271 271 272 273 272 272 272 273 273 272 272 272 273 273 272 272 272 272 272 271 272 272 273 273 276 276 276 276 274 272 271 271 271 273 273 273 272 271 273 271
271 271 271 271 271 272 272 271 272 271 271 270 269 270 271 271 271 272 271 271 272 272 272 272 273 273 273 274 274 275 275 275 274 273 272 273 272 271 270 269 270 268 266
270 271 270 269 270 270 271 272 271 270 268 269 269 269 270 270 271 272 272 273 273 272 272 272 272 272 273 274 275 275 276 275 274 273 271 270 269 269 268 266 267 266 265
270 270 270 269 270 270 270 270 270 269 269 269 269 271 271 271 271 272 273 272 271 272 272 272 272 272 272 273 275 276 276 276 274 269 270 269 268 267 267 267 266 266 265
270 269 269 270 270 269 269 269 268 268 269 270 270 271 272 271 272 272 272 273 274 273 274 274 272 273 273 275 275 276 276 276 275 270 268 267 267 265 265 265 265 265 264

GFSMW_sfc_thetae_279.txt.gz
Theta_e
284 285 285 285 286 287 287 288 288 291 294 295 295 297 301 307 308 309 311 310 313 314 314 314 315 324 328 328 326 324 323 323 314 306 302 299 298 297 298 298 298 297 295
282 282 283 284 284 285 286 286 287 289 292 294 294 295 297 300 308 310 310 310 312 316 316 318 316 319 327 327 326 325 322 322 316 311 308 299 298 294 293 294 292 291 292
279 281 282 282 283 283 284 286 286 288 291 293 294 295 298 303 306 308 309 312 312 311 313 314 317 318 323 323 326 326 323 319 318 317 314 305 304 292 292 288 289 289 288
280 280 280 280 281 282 285 286 286 287 290 291 291 291 292 296 303 307 309 309 308 305 304 306 309 313 321 324 325 325 323 322 317 319 319 314 302 296 288 287 285 286 285
279 279 279 280 281 283 283 285 286 286 288 288 289 290 291 296 300 302 303 304 303 299 298 298 300 305 311 321 324 325 323 323 320 319 316 307 305 300 293 285 282 282 282
279 279 280 280 281 282 283 284 284 284 286 286 287 287 289 291 295 298 299 298 297 294 292 293 294 296 296 297 298 303 308 307 312 312 310 307 303 300 294 288 284 281 279
278 278 278 278 279 280 281 282 282 282 283 284 284 285 287 289 290 292 293 292 291 289 287 288 289 289 290 291 292 291 291 292 292 293 290 290 291 297 295 291 283 281 279
277 277 277 278 278 279 280 281 281 281 281 282 282 284 285 286 287 288 288 288 286 285 285 285 285 286 286 286 287 287 285 287 288 285 285 284 283 286 289 291 287 281 281
276 276 277 277 277 278 279 280 279 280 280 280 281 281 282 282 283 284 284 284 284 283 282 282 281 282 282 282 282 282 282 282 281 280 281 280 280 282 284 289 289 287 280
276 276 276 276 277 277 278 280 279 279 279 280 280 279 279 280 280 281 281 281 281 281 281 280 280 279 280 280 280 279 278 278 279 279 279 279 279 280 281 281 282 285 286
274 275 275 275 276 277 278 279 278 278 278 278 279 278 278 278 278 278 278 279 280 280 279 279 279 279 279 279 279 277 278 278 277 278 277 277 278 277 278 278 279 279 282
274 274 274 274 275 275 277 277 277 277 278 278 278 277 277 277 276 276 277 278 277 278 278 278 278 278 278 278 277 276 276 276 275 276 276 276 277 277 278 277 276 277 278
272 272 273 273 274 275 276 276 276 277 277 278 277 277 277 276 276 276 276 276 276 276 277 277 276 276 276 276 277 276 275 275 275 275 275 275 275 275 275 277 276 277 277
271 271 272 273 274 275 275 275 276 277 277 277 276 276 276 277 277 277 277 276 276 276 275 276 276 276 276 276 276 276 276 276 276 276 276 276 275 275 275 275 275 276 275
270 271 271 273 274 275 275 276 276 277 277 276 276 276 277 277 277 277 277 277 277 277 277 277 277 277 277 276 276 276 275 275 274 275 276 276 277 278 277 275 274 274 273
270 271 271 273 273 275 275 276 276 276 277 276 276 277 277 277 277 277 277 277 277 277 278 277 277 277 278 280 279 277 276 276 275 274 274 274 274 276 276 276 277 275 273
271 271 272 272 274 276 277 276 276 277 277 276 277 277 277 277 277 277 277 276 276 277 276 276 276 276 277 278 278 277 275 275 274 274 274 274 275 274 273 274 274 274 274
271 272 273 274 275 276 277 277 277 277 276 276 276 276 276 276 276 276 276 276 276 276 276 276 276 276 276 277 276 275 273 273 273 274 274 274 275 276 274 273 272 272 272
272 271 270 271 275 274 276 276 276 276 275 275 275 275 276 275 275 275 275 276 276 276 276 277 276 275 275 277 276 274 273 272 271 272 273 274 275 276 277 274 272 271 272
270 270 271 273 274 274 276 275 275 275 274 274 274 275 275 275 275 275 275 276 276 275 276 276 277 277 276 277 277 275 274 272 272 272 272 274 274 275 276 274 272 269 270
269 271 271 273 273 273 275 274 274 273 274 275 275 275 275 274 275 275 275 275 275 275 274 274 274 275 277 277 278 277 274 274 273 272 272 272 274 276 275 275 273 271 272
270 272 272 273 274 274 275 274 274 274 274 274 274 273 273 274 274 273 273 274 274 273 273 273 274 274 274 276 277 277 276 275 274 273 272 272 274 275 275 274 274 274 273
272 273 274 273 274 274 274 273 274 273 272 272 270 271 272 273 274 274 273 273 274 274 273 274 274 273 274 275 275 275 276 276 275 275 274 275 275 274 272 272 272 270 268
273 273 273 272 272 273 273 274 274 272 269 270 270 271 271 272 272 274 274 275 274 274 274 274 274 274 274 274 276 276 276 276 275 275 273 272 272 273 271 267 269 268 267
273 273 272 272 272 272 272 272 272 270 270 271 271 272 273 271 273 273 274 274 275 275 275 275 275 274 273 274 276 276 276 276 276 270 271 270 269 269 269 269 268 268 267
273 272 272 272 272 272 271 271 270 269 270 271 272 273 273 273 273 274 273 275 275 275 275 275 274 274 275 275 275 276 277 277 277 270 270 269 268 268 268 267 267 267 265

GFSMW_sfc_thetae_285.txt.gz
Theta_e
279 281 282 282 282 282 282 283 284 285 287 287 288 290 292 293 294 297 299 302 308 308 305 307 310 311 314 320 322 322 320 313 310 304 302 298 296 294 294 294 295 295 295
277 279 280 280 280 280 281 282 284 285 286 287 287 289 291 292 293 296 299 301 307 308 306 307 310 312 310 313 320 320 319 313 313 310 305 300 299 294 291 292 292 290 291
276 276 278 277 278 278 280 282 283 284 285 286 288 289 291 293 294 298 302 304 303 303 303 303 307 311 312 312 316 319 318 313 313 313 311 301 302 293 290 288 288 288 288
276 276 277 277 277 278 280 281 283 284 285 285 286 285 286 287 292 296 300 302 298 296 296 298 299 303 307 309 310 315 318 316 313 313 314 307 300 298 289 287 285 285 285
275 275 274 277 277 278 279 280 281 283 283 284 284 285 285 288 292 295 298 299 296 295 293 294 296 298 300 302 303 305 308 316 315 314 308 305 299 298 294 287 283 283 282
275 275 276 277 277 277 278 279 279 281 282 282 282 283 284 286 287 292 293 293 293 291 290 290 291 293 295 296 297 298 301 304 313 315 310 303 301 296 293 287 284 282 279
274 274 274 274 276 275 276 278 278 279 281 281 281 282 283 284 287 288 289 288 288 287 286 287 288 289 290 291 292 292 291 291 294 295 300 298 297 299 295 290 283 282 279
274 273 274 274 274 276 276 277 278 278 279 280 280 282 282 283 285 285 286 285 284 284 284 284 285 285 286 287 287 286 285 286 286 286 286 287 287 288 291 291 286 280 279
272 271 273 273 273 274 276 276 278 278 278 279 280 280 280 281 281 282 283 282 283 283 282 281 281 282 282 283 283 282 282 283 283 283 285 285 285 286 289 291 290 290 280
272 272 271 273 274 274 275 277 277 277 278 278 279 279 279 279 279 280 279 279 280 281 280 280 280 280 281 281 281 280 281 281 281 282 282 282 283 284 286 287 288 289 287
269 270 270 271 270 270 271 273 274 274 276 278 277 277 277 277 277 277 278 278 278 278 278 278 279 279 279 280 280 280 281 280 280 281 280 280 281 281 281 283 285 286 286
269 268 270 267 266 267 268 270 274 274 274 276 277 277 277 277 276 276 277 278 277 278 278 278 277 277 278 278 278 278 278 278 278 278 278 278 279 278 279 280 280 281 282
268 266 267 266 264 267 269 270 272 274 275 276 277 277 276 276 276 276 277 277 277 277 278 278 278 278 278 277 277 278 277 277 276 276 276 276 277 276 277 277 276 277 279
262 261 263 265 268 269 272 271 271 274 274 275 276 276 276 277 277 277 277 277 278 277 277 277 277 277 277 277 277 277 276 276 277 277 277 277 276 275 276 276 276 276 274
261 261 261 264 269 270 271 269 271 273 274 275 276 276 276 277 277 277 277 277 278 278 278 278 278 278 277 277 276 275 275 274 274 275 277 278 279 280 278 275 275 275 274
259 260 261 263 268 269 271 270 272 273 274 274 274 275 276 276 276 276 276 276 276 276 277 278 278 278 279 280 279 277 275 275 274 273 274 274 275 279 280 280 280 277 274
259 261 262 266 267 272 275 273 272 273 274 274 274 275 276 275 276 276 276 275 275 276 275 275 277 277 278 280 279 278 275 274 275 275 275 274 275 274 274 276 277 277 278
261 262 264 268 268 272 272 276 276 276 275 274 274 275 275 275 275 275 275 275 275 274 274 274 275 275 277 279 278 277 274 274 274 274 275 275 276 275 274 273 272 272 273
265 264 263 262 268 268 271 273 274 275 274 274 274 275 275 274 275 274 274 274 275 274 275 275 275 276 276 278 277 275 273 273 273 274 274 275 275 278 277 273 272 271 272
265 266 266 267 268 267 271 273 272 272 272 273 274 274 274 274 272 273 273 274 274 275 275 275 275 275 276 279 278 275 274 272 271 272 273 277 276 278 277 273 272 269 270
267 266 265 266 267 267 270 270 269 269 271 272 273 273 273 272 272 272 272 272 272 272 271 272 272 273 275 277 278 277 275 273 272 272 271 271 276 276 276 275 271 271 271
267 269 268 269 269 271 273 271 270 272 271 271 270 269 267 272 271 267 268 268 268 268 267 267 269 270 272 276 278 278 276 276 272 271 271 271 276 276 276 273 274 275 269
270 271 269 270 270 271 271 270 270 270 268 266 264 264 267 270 270 267 268 267 266 266 267 269 267 267 271 271 277 277 277 277 273 272 273 276 275 275 272 274 274 267 263
270 270 269 269 269 269 272 271 270 269 265 264 265 265 265 266 266 271 270 267 265 265 268 268 268 267 268 269 270 271 270 276 274 274 270 272 274 275 272 266 269 265 264
271 270 269 269 269 269 269 267 269 267 266 265 266 266 267 266 267 269 268 270 270 270 266 267 266 264 265 269 274 272 269 268 272 263 261 261 261 263 264 263 264 263 262
270 269 269 269 268 268 268 266 266 267 266 267 267 267 267 266 266 266 266 275 277 277 279 279 273 271 275 277 278 279 279 279 279 261 260 263 265 266 266 264 265 263 263

GFSMW_sfc_thetae_291.txt.gz
Theta_e
279 279 281 280 280 280 280 281 281 282 283 283 282 284 284 285 288 291 293 292 293 295 296 298 300 304 304 305 310 320 319 312 310 306 303 299 296 295 295 297 296 296 296
276 278 278 278 279 279 279 279 281 282 283 283 283 284 284 286 286 288 289 293 297 300 301 301 301 303 303 305 307 318 317 312 312 309 305 300 300 295 292 292 293 292 293
275 275 276 276 277 277 277 279 280 281 282 283 283 283 284 285 285 288 289 292 295 297 299 299 302 304 306 307 306 312 315 311 311 312 309 302 302 295 291 289 289 289 289
275 276 276 275 275 277 277 278 279 279 281 282 281 280 280 279 283 286 288 290 293 296 295 295 296 299 301 304 306 309 310 315 311 312 311 306 301 300 292 289 286 286 286
274 274 274 276 275 277 275 276 277 278 280 281 280 280 279 281 284 285 285 288 293 294 292 292 293 294 295 298 300 300 303 310 311 312 307 304 300 300 298 290 286 285 283
276 275 275 276 275 275 275 275 276 278 278 279 279 279 279 280 281 282 283 287 291 291 291 289 290 291 291 292 294 297 300 302 308 311 309 303 303 299 295 290 287 288 281
274 273 273 273 274 274 275 275 276 276 277 277 278 278 279 280 280 281 283 285 286 286 287 287 287 288 289 290 291 294 295 295 297 303 308 305 303 300 298 293 286 285 280
274 273 273 272 272 274 275 275 275 275 276 276 276 277 278 280 280 281 282 283 285 285 285 285 285 286 287 288 289 290 289 288 288 287 288 292 293 294 295 294 288 283 280
272 270 272 271 271 272 273 274 274 275 274 274 276 275 276 277 277 279 280 282 283 284 283 283 283 283 285 285 285 286 286 286 285 285 286 286 286 290 291 292 293 295 285
271 271 271 271 272 272 272 273 273 270 270 273 274 277 274 276 275 276 279 280 280 281 281 281 281 281 282 282 283 283 284 285 284 285 285 285 285 287 289 290 290 291 292
268 268 269 270 268 268 267 268 268 267 270 271 273 274 274 274 274 277 278 278 278 278 278 279 279 279 280 281 282 282 283 283 283 283 283 282 284 284 285 287 288 288 288
267 267 267 265 264 265 265 266 265 266 270 271 273 274 274 271 270 274 277 278 278 279 279 279 279 279 279 280 280 279 280 280 280 280 281 280 282 281 282 283 284 284 284
267 264 262 262 263 264 264 264 265 268 270 269 270 272 273 273 271 274 278 278 278 278 278 278 278 278 278 278 279 279 278 278 278 278 278 279 280 279 280 281 280 281 281
262 259 261 262 262 264 264 264 265 266 267 268 269 270 272 273 275 276 277 278 278 278 277 277 277 277 278 278 278 278 278 278 278 278 278 278 278 278 279 279 279 279 278
261 260 259 260 261 264 264 264 264 265 264 267 270 271 272 273 274 275 276 277 278 279 279 278 278 278 278 277 276 277 277 276 277 279 280 281 280 280 279 277 277 277 277
261 261 258 259 263 263 264 265 265 266 267 269 269 269 272 274 274 275 276 276 277 277 278 278 278 278 280 281 280 278 276 276 276 275 276 276 279 282 282 282 281 278 276
261 261 262 262 264 266 272 267 267 271 273 273 274 274 272 273 274 275 276 275 275 276 276 277 278 278 279 281 280 278 277 276 275 275 274 274 274 275 276 279 280 279 280
261 262 263 268 267 270 270 274 274 273 273 273 274 275 275 275 274 274 273 274 275 275 274 274 276 278 279 280 279 278 275 275 274 274 274 273 273 273 273 273 273 273 273
265 265 264 263 266 267 268 271 270 271 272 270 272 273 275 275 275 274 274 274 274 274 275 276 275 275 277 280 279 276 274 274 273 274 274 274 274 277 277 273 272 272 273
263 265 266 265 267 267 269 272 271 271 270 271 272 272 272 272 272 274 275 275 275 275 275 275 275 275 275 278 278 275 275 273 273 273 274 278 276 278 277 272 271 269 269
266 264 265 266 267 267 268 270 269 268 270 271 272 272 272 271 272 271 271 271 271 271 269 270 271 272 274 276 278 277 274 273 272 272 271 272 278 278 277 275 271 271 271
266 270 268 268 269 270 271 271 270 271 270 269 269 268 267 270 270 265 267 267 267 266 266 266 268 269 271 276 278 278 276 275 271 271 270 271 278 278 278 276 275 277 272
270 271 270 270 270 270 270 269 270 269 267 266 264 263 265 269 269 265 266 266 264 265 266 267 266 267 269 270 277 279 279 278 272 271 272 274 276 279 276 279 278 273 264
271 271 269 269 270 269 271 271 269 268 265 265 265 264 264 266 265 269 269 267 265 265 267 266 267 266 266 268 268 270 268 273 274 275 269 273 276 277 274 267 272 266 266
272 271 271 271 271 269 269 268 268 266 266 265 266 266 266 265 266 268 267 269 268 268 265 265 265 262 265 268 273 272 269 267 271 263 260 262 263 265 266 265 265 265 263
272 271 271 271 271 269 269 267 267 266 266 267 266 267 267 265 266 265 266 273 276 277 278 279 274 268 274 278 278 279 280 280 279 265 264 266 267 268 268 268 267 266 265